Torna al catalogo

QIANFAN-13

AttivoComunicazioniPO
NORAD 60391·PAYLOAD·🇨🇳 China

Lanciato Aug 6, 2024 da Taiyuan Satellite Launch Center

Loading…

Prossimi Passaggi (prossime 24 ore)

TLE

AggiornatoSource: Space-Track

Epoca: Sep 14, 2026, 12:40 UTC

1 60391U 24140N   26257.52785128  .00000015  00000-0  49165-5 0  9996
2 60391  88.9908 270.8664 0014709 126.2218 234.0295 13.51023667104508

Traccia QIANFAN-13 in tempo reale con AllMySat

Download on the App Store